Voltar ao catálogo

STARLINK-30533

AtivoComunicaçõesVLEO
NORAD 58037·PAYLOAD·🇺🇸 United States

Lançado Oct 9, 2023 de Vandenberg Space Force Base

Loading…

Próximas Passagens (próximas 24 horas)

TLE

AtualizadoSource: CelesTrak SupGP

Época: Sep 15, 2026, 02:05 UTC

1 58037C 23156K   26258.08729167  .00043029  00000+0  12709-2 0  2589
2 58037  53.1592   5.1391 0001072  84.9590  32.1773 15.34380789    16

Acompanhe STARLINK-30533 em tempo real com AllMySat

Download on the App Store